Погода в Апуке

Погода в Апуке : погода сейчас, прогноз погоды и архив. Всё, что Вы хотите узнать о погоде в Апуке!

Хотите узнать прогноз погоды в Апуке? Тогда Вам сюда: Погода в Апуке

Поиск расширенной информации на нашем сайте:

Другие новости

Новости СМИ2

Главная страница сайта

Новости сайта

03.07.2017

Напоминаем, что на нашем специализированном сайте Метеоцентр.Азия вы можете получить высокодетализированные автоматические прогнозы погоды по пунктам России, СНГ и мира в авиационном формате (включающие направление и скорость ветра, видимость, явления погоды, количество и форму облачности, нижнюю и верхнюю границу облачности).


Погода в Апуке - сегодня

Время (UTC), дата Ветер
(°,м/с) 
Видим.   Явления Облачность Т
(°С)
Тd
(°С)
f(%) Тe
(°С)
Pmin
(гПа)
dP
(гПа)
Po
(мм)
O2
(г/м3)
Тmin Tmax R s Состояние
почвы
12 18.02.18 130 (ЮВ) 20000 м  {ливн. осадки}  10/10 600 м 
[Sc]
-2 -3.9 87 -4  995.3  1.2  746  303           
15 18.02.18 060 (СВ) 20000 м    10/10 600 м 
[Sc]
-4.3 -6.1 87 -7  996.3  747  306           
18 18.02.18 080 (В) 20000 м    10/10 600 м 
[Sc]
-6 -7.9 86 -11  997.1  0.8  747  309           
00 19.02.18 060 (СВ) 8{12}  20000 м    1/1 600 м 
[Sc]
-5 -7.9 80 -10  997.5  748  308           
09 19.02.18 060 (СВ) 10-14{16}  20000 м  позёмок  9/9 600 м 
[Sc]
-2.7 -5.8 79 -8  983.4  -5.2  737  301    -2.7       
21 19.02.18 230 (ЮЗ) 1{14}  20000 м    10/10 600 м 
[Sc]
-0.5 -5 72 969.5  0.6  727  294  -2.7      40  неравномерный
мокрый или
старый снег
100% 
00 20.02.18 090 (В) 4000 м  слаб. ливневой снег  10/10 600 м кучево-дожд. 
[Cb cap]
-0.9 -4.1 79 -3  970.1  0.6  727  294           
03 20.02.18 270 (З) 4000 м  слаб. ливневой снег  10/10 600 м кучево-дожд. 
[Cb cap]
-2.1 -3 94 -6  975.8  5.7  731  297           
06 20.02.18 260 (З) 4000 м  слаб. ливневой снег  10/10 600 м кучево-дожд. 
[Cb cap]
-3.3 -5 88 -8  983.1  7.3  737  301           
09 20.02.18 260 (З) 9{13}  4000 м  слаб. ливневой снег  10/10 600 м кучево-дожд. 
[Cb cap]
-4.1 -7.1 80 -10  990  6.9  742  304    -0.5     
21 20.02.18 260 (З) 5{12}  20000 м    10/10 600 м 
[Sc]
-5.4   1008.6  3.2  756    -8.8    0.6  54  неравномерный
мокрый или
старый снег
100% 
00 21.02.18 260 (З) 20000 м    10/10 600 м 
[Sc]
-7.3 -10.3 79 -11  1009.8  1.6  757  314           
03 21.02.18 020 (С) 20000 м    1/1 600 м 
[Sc]
-9 -12.4 76 -13  1012.1  2.3  759  317           
06 21.02.18 100 (В) 20000 м    ясно 
-11.3 -15.7 70 -13  1012.3  0.2  759  320           
09 21.02.18 070 (В) 20000 м    ясно 200 м 
-12.8 -15.5 80 -13  1012.8  0.5  759  322    -5.4       
12 21.02.18 060 (СВ) 20000 м    ясно 
-16.3 -19 80 -19  1012.3  -0.5  759  327           
15 21.02.18 070 (В) 20000 м    ясно 
-18.1 -20.7 80 -21  1012.4  0.1  759  329           
18 21.02.18 040 (СВ) 20000 м    ясно 
-17.4 -20.8 75 -20  1013.7  -1.3  760  329           
00 22.02.18 070 (В) 20000 м    9/9 600 м 
[Sc]
-14.3 -20.4 60 -19  1016.8  762  326           
03 22.02.18 060 (СВ) 20000 м    6/6 600 м 
[Sc]
-14.5 -18 75 -19  1019.2  2.4  764  327           
06 22.02.18 070 (В) 20000 м    9/9 600 м верхняя 
[Sc|Ci fib]
-11.8 -15.3 75 -15  1020.5  1.3  765  323           
09 22.02.18 070 (В) 20000 м    10/10 600 м 
[Sc]
-12.9 -16.8 73 -20  1022.6  2.1  767  326    -11.8       
21 22.02.18 060 (СВ) 15-17{18}  20000 м  позёмок  10/10 600 м 
[Sc]
-8.7 -12 77 -17  1022.9  -0.9  767  320  -12.9      43  неравномерный
мокрый или
старый снег
100% 
06 23.02.18 080 (В) 5{16}  10 км    10/10 600 м 
[Sc]
-1.9 -4.2 84 -5  1016.7  -1.7  762  310           
21 23.02.18 060 (СВ) 12-14{19}  20000 м    10/10 600 м 
[Sc]
-4 -10.9 59 -10  1008.8  0.2  756  310  -4.2      43  неравномерный
мокрый или
старый снег
100% 
Время (UTC), дата Ветер
(°,м/с) 
Видим.   Явления Облачность Т
(°С)
Тd
(°С)
f(%) Тe
(°С)
Pmin
(гПа)
dP
(гПа)
Po
(мм)
O2
(г/м3)
Тmin Tmax R s Состояние
почвы

Для получения пояснительной информации подведите курсор к названию столбца.

ПОГОДА в Апуке - архив

Всё, что Вы хотите узнать о погоде в Апуке - удобно и подробно!

Выберите нужную дату (начиная с 1 января 2015* года) и нажмите кнопку "Найти".
Будут отображены архивные сводки погоды по пункту Апука, начиная с указанной даты.


Отображать данные в формате CSV (для использования в таблицах Excel)


Внимание! Наш архив погоды предназначен исключительно для личного некоммерческого использования в познавательных целях. Если Вам необходимы официальные справки о состоянии погоды (для производственных, юридических, коммерческих и т.п. целей), обращайтесь в органы Росгидромета.

*Примечание: данная дата относится к архиву по метеостанциям СССР (Россия, СНГ, Балтия).
Архив по метеостанциям Зарубежной Европы и Азии (кроме Китая) хранится 10 дней, по другим регионам земного шара (Китай, Африка, Америка, Австралия, Океания) - 1 день.

Апука - район местоположения метеостанции


Название, широта, долгота, высота метеостанции:
Апука 60.4°ш. 169.7°д. 5 м над ур. моря [Российская Федерация]

Дополнительная информация

В oтличие oт бoльшинства пoгoдных сайтoв мы публикуем пoдрoбную метеoинфoрмацию в детальнoм прoфессиoнальнoм фoрмате.

Характеристики температуры и влажнoсти вoздуха измеряются на высoте 2 м в тени вдали oт зданий и деревьев.
Скoрoсть ветра измеряется на высoте 10 м (на урoвне рoста челoвека скoрoсть ветра ниже в 1.5-2 раза). Если метеoстанция нахoдится в гoрoде или в лесу, тo скoрoсть ветра занижена на 2-4 м/с пo сравнению с oткрытым местoм. Скoрoсть ветра над акватoриями крупных рек и oзёр, а также на вершинах хoлмoв на 2-5 м/с выше, чем в oбычных услoвиях.
Атмoсфернoе давление в разных тoчках местнoсти мoжет значительнo oтличаться oт давления на метеoстанции, в зависимoсти oт услoвий рельефа (при пoдъёме на 10 м давление пoнижается примернo на 1 мм рт.ст.).